Starlink 11374

operational
NORAD ID: 61581 Int'l Des: 2024-187 Owner: SPXS Country: US Constellation: starlink
LEOCIRCULAR

关于 Starlink 11374

正在加载描述...

实时位置

正在加载3D地球...

即将过境

高度历史

Altitude vs Time

uPlot chart will show altitude changes over time

两行轨道根数

1 61581U 24187H 25259.79771832 -.00004620 00000-0 -33317-4 0 9995
2 61581 53.1573 73.8432 0001062 98.9584 261.1554 15.69693879 53483
Epoch: Sep 16, 2025 • Age: 33 hours

当前状态

高度 361.0 km
速度 7.70 km/s
星下点 30.51°N, 166.28°E
发射日期 Oct 18, 2024
运行时间 0.9 years
类型 internet

技术详情

分类 Payload
质量 960.00 kg
干质量 910.00 kg
总质量 960.00 kg
长度 0.30 m
直径 4.10 m
跨度 29.00 m
形状 Box + pan
制造商 SPXS
平台类型 Starlink V2MD
阶段状态 In Orbit
所有者/国家 SPXS/US

大型星座

Loading constellations...